This is the latest recevied weather packets stored in our database for station/object KC1OEK-13. If no packets are shown the sender has not sent any weather packets the latest 10 day(s).
| Time | Temp. | Humidity | Pressure | Rain* | Wind** | Luminosity | Snow |
|---|---|---|---|---|---|---|---|
| 1778071936 | 17.22° C | 82% | 1011.3 hPa | 0 mm | - | 165 W/m² | - |
| 1778071634 | 17.22° C | 82% | 1011.4 hPa | 0 mm | - | 133 W/m² | - |
| 1778071332 | 17.22° C | 82% | 1011.3 hPa | 0 mm | - | 130 W/m² | - |
| 1778071028 | 16.67° C | 82% | 1011.4 hPa | 0 mm | - | 123 W/m² | - |
| 1778070728 | 16.67° C | 82% | 1011.5 hPa | 0 mm | - | 104 W/m² | - |
| 1778070424 | 16.67° C | 83% | 1011.6 hPa | 0 mm | - | 82 W/m² | - |
| 1778070121 | 16.67° C | 84% | 1011.9 hPa | 0 mm | - | 85 W/m² | - |
| 1778069819 | 16.67° C | 83% | 1011.9 hPa | 0 mm | - | 135 W/m² | - |
| 1778069515 | 16.67° C | 83% | 1011.7 hPa | 0 mm | - | 202 W/m² | - |
| 1778069213 | 16.11° C | 84% | 1011.8 hPa | 0 mm | - | 177 W/m² | - |
| 1778068910 | 16.11° C | 85% | 1011.7 hPa | 0 mm | - | 163 W/m² | - |
| 1778068609 | 15.56° C | 86% | 1011.8 hPa | 0 mm | - | 207 W/m² | - |
| 1778068306 | 15.56° C | 87% | 1011.6 hPa | 0 mm | - | 198 W/m² | - |
| 1778068003 | 15.56° C | 87% | 1011.5 hPa | 0 mm | - | 117 W/m² | - |
| 1778067701 | 15.56° C | 88% | 1011.7 hPa | 0 mm | - | 80 W/m² | - |
| 1778067400 | 15° C | 88% | 1011.6 hPa | 0 mm | - | 90 W/m² | - |
| 1778067096 | 15° C | 88% | 1011.6 hPa | 0 mm | - | 100 W/m² | - |
| 1778066792 | 15° C | 89% | 1011.7 hPa | 0 mm | - | 55 W/m² | - |
| 1778066490 | 15° C | 89% | 1011.9 hPa | 0 mm | - | 62 W/m² | - |
| 1778066188 | 14.44° C | 90% | 1011.7 hPa | 0 mm | - | 89 W/m² | - |
| 1778065885 | 14.44° C | 91% | 1011.8 hPa | 0 mm | - | 80 W/m² | - |
| 1778065582 | 14.44° C | 91% | 1011.8 hPa | 0 mm | - | 64 W/m² | - |
| 1778065280 | 13.89° C | 92% | 1011.8 hPa | 0 mm | - | 77 W/m² | - |
| 1778064976 | 13.89° C | 92% | 1011.8 hPa | 0 mm | - | 87 W/m² | - |
| 1778064673 | 13.33° C | 93% | 1012 hPa | 0 mm | - | 82 W/m² | - |
* Rain latest hour (hover to see other rain measurements)
** Current wind speed in m/s (hover to see current wind gust speed)